Regional Weather Roundup
Issued by NWS Cleveland, OH

Home | Current Version | Previous Version | Text Only | Print | Product List | Glossary Off
Versions: 1 2 3 4 5 6 7 8 9 10 11 12 13 14 15 16 17 18 19 20 21 22 23 24 25 26 27 28 29 30 31 32 33 34 35 36 37 38 39 40 41 42 43 44 45 46 47 48 49 50

000
ASUS41 KCLE 220602
RWRCLE
OHIO REGIONAL WEATHER ROUNDUP
NATIONAL WEATHER SERVICE CLEVELAND, OH
100 AM EST MON DEC 22 2014

NOTE: "FAIR" INDICATES FEW OR NO CLOUDS BELOW 12,000 FEET WITH NO
SIGNIFICANT WEATHER AND/OR OBSTRUCTIONS TO VISIBILITY.

OHZ001>008-015>018-024>027-034-035-043-044-220700-
   NORTHWEST OHIO

CITY           SKY/WX    TMP DP  RH WIND       PRES   REMARKS
DEFIANCE       MOCLDY    26  22  84 E7        30.13F WCI  18
FINDLAY        MOCLDY    28  22  78 E8        30.13F WCI  20
TOLEDO EXPRESS MOCLDY    25  21  85 E5        30.15F FOG     WCI  19
TOLEDO EXEC    MOCLDY    24  20  84 E6        30.17F FOG     WCI  17
LIMA           PTCLDY    29  22  75 E9        30.11F WCI  20
$$

OHZ009>014-019>023-028>033-038-089-220700-
   NORTHEAST OHIO

CITY           SKY/WX    TMP DP  RH WIND       PRES   REMARKS
CLE-HOPKINS    MOCLDY    27  20  75 E7        30.19F WCI  19
CLE-LAKEFRONT  PTCLDY    30  21  69 SE6       30.18F WCI  24
CUY CO. ARPT   NOT AVBL
LORAIN-ELYRIA  PTCLDY    23  20  88 CALM      30.17F
ASHTABULA      CLEAR     26  21  81 E5        30.19F WCI  20
AKRON-CANTON   PTCLDY    25  19  78 E6        30.14F WCI  18
WOOSTER        CLEAR     23  19  85 E5        30.15F WCI  17
MANSFIELD      CLEAR     22  19  89 SE7       30.13F WCI  13
YOUNGSTOWN     PTCLDY    25  21  85 E9        30.15F WCI  15
$$

OHZ042-051>053-060>062-070>072-077>081-220700-
  SOUTHWEST OHIO

CITY           SKY/WX    TMP DP  RH WIND       PRES   REMARKS
CINC-COVINGTON PTCLDY    29  22  75 E5        30.07F WCI  24
CINC-LUNKEN    CLEAR     23  21  92 NE3       30.11F FOG
HAMILTON       PTCLDY    23  21  92 CALM      30.10F
DAYTON         PTCLDY    28  24  85 E9        30.10F WCI  19
WRIGHT-PAT AFB PTCLDY    26  23  86 N1        30.11F
DAYTON GENERAL CLEAR     28  24  85 E10       30.07F WCI  19
WILMINGTON     CLEAR     26  22  84 E5        30.09F FOG     WCI  20
$$

OHZ036-037-039>041-045>050-054>059-063>069-073>076-082>088-220700-
  CENTRAL AND SOUTHEAST OHIO

CITY           SKY/WX    TMP DP  RH WIND       PRES   REMARKS
COLUMBUS       PTCLDY    27  21  78 E6        30.13F WCI  20
OSU AIRPORT    CLEAR     24  20  84 E3        30.12F
BOLTON FIELD   NOT AVBL
RICKENBACK AFB NOT AVBL
NEWARK         CLEAR     25  21  85 CALM      30.13F
MARION         CLEAR     25  20  81 E3        30.13F HAZE
LANCASTER      CLEAR     25  19  78 CALM      30.13F HAZE
ZANESVILLE     CLEAR     25  20  81 CALM      30.14F
NEW PHILLY     CLEAR     22  18  85 CALM      30.17F FOG
$$



USA.gov is the U.S. government's official web portal to all federal, state and local government web resources and services.